Tracking 17784 objects as of 24-July-2016
HD Live streaming from Space Station
objects crossing your sky now

COSMOS 482 DESCENT CRAFT

Track COSMOS 482 DESCENT CRAFT now!
10-day predictions
COSMOS 482 DESCENT CRAFT is classified as:


NORAD ID: 6073
Int'l Code: 1972-023E
Perigee: 210.7 km
Apogee: 2,747.7 km
Inclination: 52.1 °
Period: 115.4 minutes
Semi major axis: 7850 km
RCS: 0.7153 m2 (medium)
Launch date: March 31, 1972
Source: Commonwealth of Independent States (former USSR) (CIS)
Launch site: TYURATAM MISSILE AND SPACE COMPLEX (TTMTR)
Your satellite tracking list
Your tracking list is empty





NASA's NSSDC Master Catalog

Two Line Element Set (TLE):
1 06073U 72023E   16206.51877874  .00008973  44491-5  49779-4 0  9996
2 06073  52.0746  53.7745 1615888 269.3432  72.2841 12.48201060319864
Source of the keplerian elements: AFSPC

N2YO: 863